#timestamp,LO_Frequency,Hit 
1499929215.4,286046946.5,N
1499929235.2,286046946.5,N
1499929255.0,286046945.0,N
1499929256.0,286046945.0,N
1499929275.8,286046944.6,N
1499929295.6,286046944.5,N
1499929315.4,286046945.1,N
1499929335.3,286046944.2,N
1499929355.1,286046945.1,N
1499929375.8,286046942.3,N
1499929395.7,286046938.3,N
1499929415.5,286046934.9,N
1499929435.3,286046936.7,N
1499929455.3,286046936.3,N
1499929475.2,286046936.8,N
1499929495.9,286046934.4,N
1499929515.7,286046934.3,N
1499929535.6,286046936.9,N
1499929555.4,286046936.7,N
1499929575.2,286046938.8,N
1499929595.1,286046938.3,N
1499929596.0,286046938.3,N
1499929615.8,286046936.9,N
1499929635.6,286046935.6,N
1499929655.5,286046936.6,N
1499929675.3,286046936.1,N
1499929695.1,286046935.9,N
1499929715.9,286046936.8,N
1499929735.7,286046935.9,N
1499929755.5,286046940.4,N
1499929775.3,286046937.8,N
1499929795.2,286046940.2,N
1499929815.0,286046940.1,N
1499929815.9,286046940.1,N
1499929835.7,286046937.4,N
1499929855.6,286046939.7,N
1499929875.4,286046937.9,N
1499929895.2,286046941.9,N
1499929915.1,286046940.5,N
1499929916.0,286046940.5,N
1499929935.8,286046942.3,N
1499929955.6,286046943.7,N
1499929975.5,286046944.4,N
1499929995.3,286046944.5,N
1499930015.1,286046946.3,N
1499930035.9,286046946.7,N
1499930055.7,286046945.5,N
1499930075.5,286046948.3,N
1499930095.4,286046946.9,N
1499930115.2,286046949.8,N
1499930135.0,286046947.1,N
1499930135.9,286046947.1,N
1499930155.8,286046949.4,N
1499930175.6,286046943.6,N
1499930195.4,286046942.3,N
1499930215.3,286046944.8,N
1499930235.1,286046946.4,N
1499930236.0,286046946.4,N
1499930255.8,286046952.3,N
1499930275.7,286046958.6,N
1499930295.5,286046956.7,N
1499930315.3,286046958.9,N
1499930335.1,286046956.8,N
1499930355.9,286046955.6,N
1499930375.7,286046950.6,N
1499930395.5,286046950.4,N
1499930415.4,286046953.2,N
1499930435.2,286046951.3,N
1499930455.0,286046949.8,N
1499930455.9,286046949.8,N
1499930475.8,286046948.2,N
1499930495.6,286046944.0,N
1499930515.4,286046944.0,N
1499930535.3,286046947.7,N
1499930555.1,286046947.3,N
1499930556.0,286046947.3,N
1499930575.8,286046947.2,N
1499930595.7,286046947.5,N
1499930615.5,286046947.2,N
1499930635.3,286046945.3,N
1499930655.2,286046945.3,N
1499930675.9,286046945.7,N
1499930695.7,286046946.4,N
1499930715.5,286046945.4,N
1499930735.4,286046946.0,N
1499930755.2,286046944.1,N
1499930775.0,286046944.3,N
1499930775.9,286046944.3,N
1499930795.8,286046943.9,N
1499930815.6,286046944.7,N
1499930835.4,286046944.9,N
1499930855.3,286046945.9,N
1499930875.1,286046947.3,N
1499930895.8,286046949.5,N
1499930915.7,286046947.0,N
1499930935.5,286046950.0,N
1499930955.3,286046947.1,N
1499930975.2,286046949.9,N
1499930995.9,286046947.3,N
1499931015.7,286046946.3,N
1499931035.6,286046944.0,N
1499931055.4,286046946.2,N
1499931075.2,286046946.8,N
1499931095.1,286046944.5,N
1499931096.0,286046944.5,N
1499931115.8,286046943.7,N
1499931135.6,286046942.1,N
1499931155.4,286046941.7,N
1499931175.3,286046940.1,N
1499931195.1,286046940.1,N
1499931215.8,286046940.1,N
1499931235.7,286046939.7,N
1499931255.5,286046939.4,N
1499931275.3,286046937.4,N
1499931295.2,286046939.9,N
1499931315.9,286046938.8,N
1499931335.7,286046937.8,N
1499931355.6,286046937.5,N
1499931375.4,286046937.3,N
1499931395.2,286046936.0,N
1499931415.1,286046937.0,N
1499931416.0,286046937.0,N
1499931435.8,286046935.7,N
1499931455.6,286046934.3,N
1499931475.5,286046936.8,N
1499931495.3,286046938.0,N
1499931515.1,286046935.7,N
1499931535.8,286046936.1,N
1499931555.7,286046940.3,N
1499931575.5,286046937.3,N
1499931595.3,286046936.5,N
1499931615.2,286046934.3,N
1499931635.0,286046933.5,N
1499931635.9,286046933.5,N
1499931655.7,286046931.3,N
1499931675.6,286046929.7,N
1499931695.4,286046929.8,N
1499931715.2,286046931.7,N
1499931735.1,286046931.7,N
1499931736.0,286046931.7,N
1499931755.8,286046929.9,N
1499931775.6,286046930.7,N
1499931795.5,286046929.9,N
1499931815.3,286046929.6,N
1499931835.1,286046931.6,N
1499931855.9,286046931.2,N
1499931875.7,286046931.1,N
1499931895.5,286046933.5,N
1499931915.4,286046933.2,N
1499931935.2,286046929.2,N
1499931955.0,286046926.1,N
1499931955.9,286046926.1,N
1499931975.8,286046930.3,N
1499931995.6,286046927.7,N
1499932015.4,286046923.1,N
1499932035.3,286046923.6,N
1499932055.1,286046925.0,N
1499932056.0,286046925.0,N
1499932075.8,286046926.8,N
1499932095.9,286046927.9,N
1499932115.7,286046926.8,N
1499932135.5,286046927.3,N
1499932155.4,286046928.8,N
1499932175.2,286046926.1,N
1499932195.0,286046926.7,N
1499932195.9,286046926.7,N
1499932215.8,286046928.8,N
1499932235.6,286046928.7,N
1499932255.4,286046926.7,N
1499932275.3,286046927.3,N
1499932295.1,286046925.1,N
1499932296.0,286046925.1,N
1499932315.8,286046924.5,N
1499932335.7,286046925.9,N
1499932355.5,286046926.0,N
1499932375.3,286046922.9,N
1499932395.1,286046925.7,N
1499932415.9,286046924.7,N
1499932435.7,286046925.2,N
1499932455.5,286046925.8,N
1499932475.4,286046923.9,N
1499932495.2,286046920.2,N
1499932515.0,286046920.6,N
1499932515.9,286046920.6,N
1499932535.8,286046920.3,N
1499932555.6,286046920.5,N
1499932575.4,286046920.6,N
1499932595.3,286046920.5,N
1499932615.1,286046918.1,N
1499932635.8,286046919.1,N
1499932655.7,286046919.6,N
1499932675.5,286046918.5,N
1499932695.3,286046916.6,N
1499932715.2,286046917.6,N
1499932735.9,286046915.9,N
1499932755.7,286046914.7,N
1499932775.6,286046912.0,N
1499932795.4,286046913.7,N
